Regional Weather Roundup
Issued by NWS Sioux Falls, SD

Home | Current Version | Previous Version | Text Only | Print | Product List | Glossary Off
Versions: 1 2 3 4 5 6 7 8 9 10 11 12 13 14 15 16 17 18 19 20 21 22 23 24 25 26 27 28 29 30 31 32 33 34 35 36 37 38 39 40 41 42 43 44 45 46 47 48 49 50

259
ASUS43 KFSD 260510
RWRFSD

WEATHER ROUNDUP FOR SE SOUTH DAKOTA/SW MINNESOTA/NW IOWA
NATIONAL WEATHER SERVICE SIOUX FALLS SD
1200 AM CDT TUE JUL 26 2016

NOTE: "FAIR" INDICATES FEW OR NO CLOUDS BELOW 12,000 FEET WITH NO
SIGNIFICANT WEATHER AND OR OBSTRUCTIONS TO VISIBILITY.


SDZ038>040-050-052>070-260600-
SOUTHEAST SOUTH DAKOTA

CITY           SKY/WX    TMP DP  RH WIND       PRES   REMARKS
BROOKINGS      CLOUDY    70  63  78 S7        30.07S
CHAMBERLAIN    CLOUDY    70  58  66 SE8       30.05R
HURON          CLOUDY    76  57  51 S10       30.01S
MADISON        FAIR      66  66 100 S7        30.08S
MITCHELL       CLOUDY    75  61  61 S7        30.04F
SIOUX FALLS    PTCLDY    72  63  73 S8        30.08R
WINNER         FAIR      78  54  43 S15       30.05S
YANKTON        CLEAR     72  63  73 S6        30.07S
$$

MNZ071-072-080-081-089-090-097-098-260600-
SOUTHWEST MINNESOTA

CITY           SKY/WX    TMP DP  RH WIND       PRES   REMARKS
FAIRMONT       CLEAR     70  55  60 S6        30.08R
JACKSON        CLEAR     70  63  78 S5        30.11R
LUVERNE        CLEAR     64  63  94 CALM      30.10R
MARSHALL       CLEAR     69  65  86 SW8       30.05S
MONTEVIDEO     CLEAR     72  64  78 SW8       30.05R
REDWOOD FALLS  CLEAR     71  64  78 S6        30.05R
TRACY          CLEAR     73  67  79 SW9       30.07S
WINDOM         CLEAR     72  66  83 S3        30.09S
WORTHINGTON    CLEAR     69  64  84 S6        30.11R
$$

IAZ001>003-012>014-020>022-031-032-NEZ013-014-SDZ071-260600-
NORTHWEST IOWA

CITY           SKY/WX    TMP DP  RH WIND       PRES   REMARKS
CHEROKEE       CLEAR     68  67  98 CALM      30.10S
DENISON        CLEAR     66  64  94 CALM      30.09S
ESTHERVILLE    CLEAR     67  65  93 S7        30.10R
LE MARS        CLEAR     70  66  88 VRB3      30.10S
SHELDON        CLEAR     68  66  94 SE6       30.09R
SIOUX CITY     CLEAR     71  65  81 SE6       30.08S
SPENCER        CLEAR     67  64  90 S3        30.10R
STORM LAKE     CLEAR     68  64  88 S7        30.12S
$$

ABBREVIATIONS USED IN REMARKS
   TC - TEMPERATURE IN CELSIUS
  WCI - WIND CHILL INDEX
   HX - HEAT INDEX
  VSB - VISIBILITY





USA.gov is the U.S. government's official web portal to all federal, state and local government web resources and services.